Year,Month,Day,Hour,Minute,Value (Times are PST for temperature in C)
2007,07,11,00,00,22.30
2007,07,11,00,01,22.30
2007,07,11,00,02,22.30
2007,07,11,00,03,22.30
2007,07,11,00,04,22.30
2007,07,11,00,05,22.30
2007,07,11,00,06,22.30
2007,07,11,00,07,22.20
2007,07,11,00,08,22.20
2007,07,11,00,09,22.20
2007,07,11,00,10,22.10
2007,07,11,00,11,22.10
2007,07,11,00,12,22.00
2007,07,11,00,13,22.00
2007,07,11,00,14,21.90
2007,07,11,00,15,21.90
2007,07,11,00,16,21.80
2007,07,11,00,17,21.80
2007,07,11,00,18,21.70
2007,07,11,00,19,21.60
2007,07,11,00,20,21.60
2007,07,11,00,21,21.50
2007,07,11,00,22,21.40
2007,07,11,00,23,21.40
2007,07,11,00,24,21.40
2007,07,11,00,25,21.30
2007,07,11,00,26,21.30
2007,07,11,00,27,21.30
2007,07,11,00,28,21.30
2007,07,11,00,29,21.30
2007,07,11,00,30,21.30
2007,07,11,00,31,21.30
2007,07,11,00,32,21.30
2007,07,11,00,33,21.30
2007,07,11,00,34,21.30
2007,07,11,00,35,21.20
2007,07,11,00,36,21.20
2007,07,11,00,37,21.20
2007,07,11,00,38,21.20
2007,07,11,00,39,21.20
2007,07,11,00,40,21.10
2007,07,11,00,41,21.10
2007,07,11,00,42,21.10
2007,07,11,00,43,21.10
2007,07,11,00,44,21.00
2007,07,11,00,45,20.90
2007,07,11,00,46,20.90
2007,07,11,00,47,20.80
2007,07,11,00,48,20.80
2007,07,11,00,49,20.80
2007,07,11,00,50,20.80
2007,07,11,00,51,20.80
2007,07,11,00,52,20.80
2007,07,11,00,53,20.80
2007,07,11,00,54,20.80
2007,07,11,00,55,20.80
2007,07,11,00,56,20.80
2007,07,11,00,57,20.70
2007,07,11,00,58,20.70
2007,07,11,00,59,20.70
2007,07,11,01,00,20.70
2007,07,11,01,01,20.70
2007,07,11,01,02,20.60
2007,07,11,01,03,20.60
2007,07,11,01,04,20.60
2007,07,11,01,05,20.60
2007,07,11,01,06,20.50
2007,07,11,01,07,20.40
2007,07,11,01,08,20.40
2007,07,11,01,09,20.40
2007,07,11,01,10,20.30
2007,07,11,01,11,20.30
2007,07,11,01,12,20.30
2007,07,11,01,13,20.20
2007,07,11,01,14,20.20
2007,07,11,01,15,20.20
2007,07,11,01,16,20.20
2007,07,11,01,17,20.10
2007,07,11,01,18,20.10
2007,07,11,01,19,20.00
2007,07,11,01,20,20.00
2007,07,11,01,21,20.00
2007,07,11,01,22,20.00
2007,07,11,01,23,20.00
2007,07,11,01,24,20.00
2007,07,11,01,25,20.00
2007,07,11,01,26,20.00
2007,07,11,01,27,20.00
2007,07,11,01,28,20.00
2007,07,11,01,29,20.00
2007,07,11,01,30,19.90
2007,07,11,01,31,19.90
2007,07,11,01,32,19.90
2007,07,11,01,33,19.90
2007,07,11,01,34,19.90
2007,07,11,01,35,19.80
2007,07,11,01,36,19.80
2007,07,11,01,37,19.80
2007,07,11,01,38,19.80
2007,07,11,01,39,19.70
2007,07,11,01,40,19.70
2007,07,11,01,41,19.70
2007,07,11,01,42,19.70
2007,07,11,01,43,19.70
2007,07,11,01,44,19.70
2007,07,11,01,45,19.70
2007,07,11,01,46,19.70
2007,07,11,01,47,19.70
2007,07,11,01,48,19.70
2007,07,11,01,49,19.60
2007,07,11,01,50,19.60
2007,07,11,01,51,19.60
2007,07,11,01,52,19.60
2007,07,11,01,53,19.60
2007,07,11,01,54,19.50
2007,07,11,01,55,19.50
2007,07,11,01,56,19.40
2007,07,11,01,57,19.40
2007,07,11,01,58,19.30
2007,07,11,01,59,19.30
2007,07,11,02,00,19.20
2007,07,11,02,01,19.20
2007,07,11,02,02,19.10
2007,07,11,02,03,19.10
2007,07,11,02,04,19.10
2007,07,11,02,05,19.10
2007,07,11,02,06,19.00
2007,07,11,02,07,19.00
2007,07,11,02,08,18.90
2007,07,11,02,09,18.90
2007,07,11,02,10,18.90
2007,07,11,02,11,18.90
2007,07,11,02,12,18.90
2007,07,11,02,13,18.80
2007,07,11,02,14,18.80
2007,07,11,02,15,18.80
2007,07,11,02,16,18.80
2007,07,11,02,17,18.80
2007,07,11,02,18,18.80
2007,07,11,02,19,18.80
2007,07,11,02,20,18.80
2007,07,11,02,21,18.80
2007,07,11,02,22,18.70
2007,07,11,02,23,18.70
2007,07,11,02,24,18.70
2007,07,11,02,25,18.70
2007,07,11,02,26,18.60
2007,07,11,02,27,18.60
2007,07,11,02,28,18.60
2007,07,11,02,29,18.60
2007,07,11,02,30,18.60
2007,07,11,02,31,18.60
2007,07,11,02,32,18.60
2007,07,11,02,33,18.60
2007,07,11,02,34,18.60
2007,07,11,02,35,18.60
2007,07,11,02,36,18.60
2007,07,11,02,37,18.60
2007,07,11,02,38,18.60
2007,07,11,02,39,18.60
2007,07,11,02,40,18.60
2007,07,11,02,41,18.60
2007,07,11,02,42,18.60
2007,07,11,02,43,18.60
2007,07,11,02,44,18.60
2007,07,11,02,45,18.60
2007,07,11,02,46,18.60
2007,07,11,02,47,18.50
2007,07,11,02,48,18.50
2007,07,11,02,49,18.50
2007,07,11,02,50,18.50
2007,07,11,02,51,18.50
2007,07,11,02,52,18.40
2007,07,11,02,53,18.40
2007,07,11,02,54,18.40
2007,07,11,02,55,18.40
2007,07,11,02,56,18.30
2007,07,11,02,57,18.30
2007,07,11,02,58,18.30
2007,07,11,02,59,18.30
2007,07,11,03,00,18.30
2007,07,11,03,01,18.30
2007,07,11,03,02,18.30
2007,07,11,03,03,18.30
2007,07,11,03,04,18.20
2007,07,11,03,05,18.20
2007,07,11,03,06,18.20
2007,07,11,03,07,18.20
2007,07,11,03,08,18.20
2007,07,11,03,09,18.20
2007,07,11,03,10,18.20
2007,07,11,03,11,18.20
2007,07,11,03,12,18.20
2007,07,11,03,13,18.20
2007,07,11,03,14,18.10
2007,07,11,03,15,18.10
2007,07,11,03,16,18.10
2007,07,11,03,17,18.00
2007,07,11,03,18,17.90
2007,07,11,03,19,17.90
2007,07,11,03,20,17.90
2007,07,11,03,21,17.90
2007,07,11,03,22,17.80
2007,07,11,03,23,17.80
2007,07,11,03,24,17.80
2007,07,11,03,25,17.80
2007,07,11,03,26,17.80
2007,07,11,03,27,17.80
2007,07,11,03,28,17.80
2007,07,11,03,29,17.90
2007,07,11,03,30,17.90
2007,07,11,03,31,17.90
2007,07,11,03,32,17.90
2007,07,11,03,33,17.90
2007,07,11,03,34,17.90
2007,07,11,03,35,17.80
2007,07,11,03,36,17.80
2007,07,11,03,37,17.80
2007,07,11,03,38,17.80
2007,07,11,03,39,17.80
2007,07,11,03,40,17.70
2007,07,11,03,41,17.70
2007,07,11,03,42,17.70
2007,07,11,03,43,17.70
2007,07,11,03,44,17.70
2007,07,11,03,45,17.70
2007,07,11,03,46,17.70
2007,07,11,03,47,17.60
2007,07,11,03,48,17.60
2007,07,11,03,49,17.60
2007,07,11,03,50,17.60
2007,07,11,03,51,17.60
2007,07,11,03,52,17.60
2007,07,11,03,53,17.60
2007,07,11,03,54,17.50
2007,07,11,03,55,17.50
2007,07,11,03,56,17.40
2007,07,11,03,57,17.40
2007,07,11,03,58,17.40
2007,07,11,03,59,17.30
2007,07,11,04,00,17.30
2007,07,11,04,01,17.30
2007,07,11,04,02,17.30
2007,07,11,04,03,17.30
2007,07,11,04,04,17.30
2007,07,11,04,05,17.30
2007,07,11,04,06,17.30
2007,07,11,04,07,17.30
2007,07,11,04,08,17.30
2007,07,11,04,09,17.30
2007,07,11,04,10,17.30
2007,07,11,04,11,17.30
2007,07,11,04,12,17.30
2007,07,11,04,13,17.30
2007,07,11,04,14,17.30
2007,07,11,04,15,17.30
2007,07,11,04,16,17.30
2007,07,11,04,17,17.30
2007,07,11,04,18,17.30
2007,07,11,04,19,17.30
2007,07,11,04,20,17.20
2007,07,11,04,21,17.20
2007,07,11,04,22,17.20
2007,07,11,04,23,17.20
2007,07,11,04,24,17.20
2007,07,11,04,25,17.20
2007,07,11,04,26,17.20
2007,07,11,04,27,17.20
2007,07,11,04,28,17.20
2007,07,11,04,29,17.20
2007,07,11,04,30,17.20
2007,07,11,04,31,17.20
2007,07,11,04,32,17.20
2007,07,11,04,33,17.20
2007,07,11,04,34,17.20
2007,07,11,04,35,17.20
2007,07,11,04,36,17.20
2007,07,11,04,37,17.20
2007,07,11,04,38,17.20
2007,07,11,04,39,17.20
2007,07,11,04,40,17.20
2007,07,11,04,41,17.20
2007,07,11,04,42,17.20
2007,07,11,04,43,17.20
2007,07,11,04,44,17.20
2007,07,11,04,45,17.20
2007,07,11,04,46,17.20
2007,07,11,04,47,17.20
2007,07,11,04,48,17.20
2007,07,11,04,49,17.20
2007,07,11,04,50,17.20
2007,07,11,04,51,17.10
2007,07,11,04,52,17.10
2007,07,11,04,53,17.10
2007,07,11,04,54,17.20
2007,07,11,04,55,17.20
2007,07,11,04,56,17.20
2007,07,11,04,57,17.20
2007,07,11,04,58,17.20
2007,07,11,04,59,17.20
2007,07,11,05,00,17.20
2007,07,11,05,01,17.20
2007,07,11,05,02,17.20
2007,07,11,05,03,17.20
2007,07,11,05,04,17.20
2007,07,11,05,05,17.30
2007,07,11,05,06,17.30
2007,07,11,05,07,17.30
2007,07,11,05,08,17.30
2007,07,11,05,09,17.30
2007,07,11,05,10,17.20
2007,07,11,05,11,17.20
2007,07,11,05,12,17.20
2007,07,11,05,13,17.20
2007,07,11,05,14,17.10
2007,07,11,05,15,17.10
2007,07,11,05,16,17.10
2007,07,11,05,17,17.20
2007,07,11,05,18,17.20
2007,07,11,05,19,17.20
2007,07,11,05,20,17.20
2007,07,11,05,21,17.20
2007,07,11,05,22,17.10
2007,07,11,05,23,17.10
2007,07,11,05,24,17.10
2007,07,11,05,25,17.10
2007,07,11,05,26,17.10
2007,07,11,05,27,17.10
2007,07,11,05,28,17.10
2007,07,11,05,29,17.10
2007,07,11,05,30,17.10
2007,07,11,05,31,17.10
2007,07,11,05,32,17.10
2007,07,11,05,33,17.10
2007,07,11,05,34,17.10
2007,07,11,05,35,17.00
2007,07,11,05,36,17.00
2007,07,11,05,37,16.90
2007,07,11,05,38,16.90
2007,07,11,05,39,16.90
2007,07,11,05,40,17.00
2007,07,11,05,41,16.90
2007,07,11,05,42,16.90
2007,07,11,05,43,16.90
2007,07,11,05,44,16.90
2007,07,11,05,45,16.90
2007,07,11,05,46,16.90
2007,07,11,05,47,16.80
2007,07,11,05,48,16.90
2007,07,11,05,49,16.90
2007,07,11,05,50,16.90
2007,07,11,05,51,16.90
2007,07,11,05,52,16.90
2007,07,11,05,53,16.90
2007,07,11,05,54,16.90
2007,07,11,05,55,16.90
2007,07,11,05,56,16.90
2007,07,11,05,57,16.90
2007,07,11,05,58,16.90
2007,07,11,05,59,16.90
2007,07,11,06,00,17.00
2007,07,11,06,01,17.00
2007,07,11,06,02,17.00
2007,07,11,06,03,17.10
2007,07,11,06,04,17.10
2007,07,11,06,05,17.10
2007,07,11,06,06,17.10
2007,07,11,06,07,17.20
2007,07,11,06,08,17.20
2007,07,11,06,09,17.20
2007,07,11,06,10,17.30
2007,07,11,06,11,17.40
2007,07,11,06,12,17.40
2007,07,11,06,13,17.50
2007,07,11,06,14,17.50
2007,07,11,06,15,17.60
2007,07,11,06,16,17.60
2007,07,11,06,17,17.70
2007,07,11,06,18,17.70
2007,07,11,06,19,17.70
2007,07,11,06,20,17.70
2007,07,11,06,21,17.80
2007,07,11,06,22,17.80
2007,07,11,06,23,17.90
2007,07,11,06,24,17.90
2007,07,11,06,25,18.00
2007,07,11,06,26,18.10
2007,07,11,06,27,18.10
2007,07,11,06,28,18.20
2007,07,11,06,29,18.20
2007,07,11,06,30,18.30
2007,07,11,06,31,18.30
2007,07,11,06,32,18.40
2007,07,11,06,33,18.50
2007,07,11,06,34,18.60
2007,07,11,06,35,18.60
2007,07,11,06,36,18.60
2007,07,11,06,37,18.70
2007,07,11,06,38,18.70
2007,07,11,06,39,18.80
2007,07,11,06,40,18.80
2007,07,11,06,41,18.90
2007,07,11,06,42,19.00
2007,07,11,06,43,19.10
2007,07,11,06,44,19.20
2007,07,11,06,45,19.20
2007,07,11,06,46,19.30
2007,07,11,06,47,19.40
2007,07,11,06,48,19.50
2007,07,11,06,49,19.50
2007,07,11,06,50,19.60
2007,07,11,06,51,19.80
2007,07,11,06,52,19.90
2007,07,11,06,53,20.00
2007,07,11,06,54,20.10
2007,07,11,06,55,20.20
2007,07,11,06,56,20.30
2007,07,11,06,57,20.30
2007,07,11,06,58,20.30
2007,07,11,06,59,20.30
2007,07,11,07,00,20.30
2007,07,11,07,01,20.40
2007,07,11,07,02,20.40
2007,07,11,07,03,20.50
2007,07,11,07,04,20.60
2007,07,11,07,05,20.70
2007,07,11,07,06,20.80
2007,07,11,07,07,20.80
2007,07,11,07,08,20.90
2007,07,11,07,09,21.00
2007,07,11,07,10,21.00
2007,07,11,07,11,21.10
2007,07,11,07,12,21.10
2007,07,11,07,13,21.30
2007,07,11,07,14,21.40
2007,07,11,07,15,21.50
2007,07,11,07,16,21.60
2007,07,11,07,17,21.70
2007,07,11,07,18,21.70
2007,07,11,07,19,21.80
2007,07,11,07,20,21.80
2007,07,11,07,21,21.80
2007,07,11,07,22,21.80
2007,07,11,07,23,21.90
2007,07,11,07,24,21.90
2007,07,11,07,25,21.90
2007,07,11,07,26,21.90
2007,07,11,07,27,21.90
2007,07,11,07,28,21.90
2007,07,11,07,29,21.90
2007,07,11,07,30,22.00
2007,07,11,07,31,22.00
2007,07,11,07,32,22.10
2007,07,11,07,33,22.20
2007,07,11,07,34,22.30
2007,07,11,07,35,22.30
2007,07,11,07,36,22.40
2007,07,11,07,37,22.50
2007,07,11,07,38,22.60
2007,07,11,07,39,22.60
2007,07,11,07,40,22.70
2007,07,11,07,41,22.80
2007,07,11,07,42,22.90
2007,07,11,07,43,23.00
2007,07,11,07,44,23.10
2007,07,11,07,45,23.20
2007,07,11,07,46,23.30
2007,07,11,07,47,23.40
2007,07,11,07,48,23.50
2007,07,11,07,49,23.50
2007,07,11,07,50,23.60
2007,07,11,07,51,23.70
2007,07,11,07,52,23.80
2007,07,11,07,53,23.90
2007,07,11,07,54,24.10
2007,07,11,07,55,24.20
2007,07,11,07,56,24.30
2007,07,11,07,57,24.40
2007,07,11,07,58,24.60
2007,07,11,07,59,24.70
2007,07,11,08,00,24.80
2007,07,11,08,01,24.90
2007,07,11,08,02,25.00
2007,07,11,08,03,25.10
2007,07,11,08,04,25.20
2007,07,11,08,05,25.30
2007,07,11,08,06,25.40
2007,07,11,08,07,25.50
2007,07,11,08,08,25.60
2007,07,11,08,09,25.60
2007,07,11,08,10,25.70
2007,07,11,08,11,25.70
2007,07,11,08,12,25.80
2007,07,11,08,13,25.90
2007,07,11,08,14,26.00
2007,07,11,08,15,26.10
2007,07,11,08,16,26.20
2007,07,11,08,17,26.30
2007,07,11,08,18,26.50
2007,07,11,08,19,26.60
2007,07,11,08,20,26.80
2007,07,11,08,21,26.90
2007,07,11,08,22,27.00
2007,07,11,08,23,27.00
2007,07,11,08,24,27.10
2007,07,11,08,25,27.20
2007,07,11,08,26,27.30
2007,07,11,08,27,27.40
2007,07,11,08,28,27.50
2007,07,11,08,29,27.60
2007,07,11,08,30,27.60
2007,07,11,08,31,27.60
2007,07,11,08,32,27.70
2007,07,11,08,33,27.80
2007,07,11,08,34,27.90
2007,07,11,08,35,27.90
2007,07,11,08,36,28.00
2007,07,11,08,37,28.00
2007,07,11,08,38,28.00
2007,07,11,08,39,28.00
2007,07,11,08,40,28.00
2007,07,11,08,41,28.00
2007,07,11,08,42,28.00
2007,07,11,08,43,28.00
2007,07,11,08,44,28.10
2007,07,11,08,45,28.10
2007,07,11,08,46,28.20
2007,07,11,08,47,28.20
2007,07,11,08,48,28.20
2007,07,11,08,49,28.20
2007,07,11,08,50,28.30
2007,07,11,08,51,28.30
2007,07,11,08,52,28.40
2007,07,11,08,53,28.40
2007,07,11,08,54,28.40
2007,07,11,08,55,28.50
2007,07,11,08,56,28.60
2007,07,11,08,57,28.70
2007,07,11,08,58,28.70
2007,07,11,08,59,28.70
2007,07,11,09,00,28.80
2007,07,11,09,01,28.90
2007,07,11,09,02,29.00
2007,07,11,09,03,29.10
2007,07,11,09,04,29.10
2007,07,11,09,05,29.20
2007,07,11,09,06,29.10
2007,07,11,09,07,29.10
2007,07,11,09,08,29.20
2007,07,11,09,09,29.20
2007,07,11,09,10,29.30
2007,07,11,09,11,29.30
2007,07,11,09,12,29.30
2007,07,11,09,13,29.30
2007,07,11,09,14,29.40
2007,07,11,09,15,29.40
2007,07,11,09,16,29.40
2007,07,11,09,17,29.40
2007,07,11,09,18,29.40
2007,07,11,09,19,29.40
2007,07,11,09,20,29.50
2007,07,11,09,21,29.60
2007,07,11,09,22,29.70
2007,07,11,09,23,29.80
2007,07,11,09,24,29.80
2007,07,11,09,25,29.90
2007,07,11,09,26,30.00
2007,07,11,09,27,30.00
2007,07,11,09,28,30.00
2007,07,11,09,29,30.10
2007,07,11,09,30,30.10
2007,07,11,09,31,30.20
2007,07,11,09,32,30.20
2007,07,11,09,33,30.30
2007,07,11,09,34,30.20
2007,07,11,09,35,30.20
2007,07,11,09,36,30.20
2007,07,11,09,37,30.20
2007,07,11,09,38,30.30
2007,07,11,09,39,30.30
2007,07,11,09,40,30.40
2007,07,11,09,41,30.50
2007,07,11,09,42,30.60
2007,07,11,09,43,30.80
2007,07,11,09,44,30.90
2007,07,11,09,45,30.90
2007,07,11,09,46,30.90
2007,07,11,09,47,30.90
2007,07,11,09,48,30.90
2007,07,11,09,49,30.90
2007,07,11,09,50,31.00
2007,07,11,09,51,31.10
2007,07,11,09,52,31.20
2007,07,11,09,53,31.20
2007,07,11,09,54,31.20
2007,07,11,09,55,31.20
2007,07,11,09,56,31.10
2007,07,11,09,57,31.10
2007,07,11,09,58,31.10
2007,07,11,09,59,31.10
2007,07,11,10,00,31.20
2007,07,11,10,01,31.30
2007,07,11,10,02,31.30
2007,07,11,10,03,31.30
2007,07,11,10,04,31.30
2007,07,11,10,05,31.30
2007,07,11,10,06,31.20
2007,07,11,10,07,31.20
2007,07,11,10,08,31.30
2007,07,11,10,09,31.30
2007,07,11,10,10,31.40
2007,07,11,10,11,31.40
2007,07,11,10,12,31.50
2007,07,11,10,13,31.60
2007,07,11,10,14,31.60
2007,07,11,10,15,31.70
2007,07,11,10,16,31.70
2007,07,11,10,17,31.80
2007,07,11,10,18,31.80
2007,07,11,10,19,31.90
2007,07,11,10,20,32.00
2007,07,11,10,21,32.10
2007,07,11,10,22,32.10
2007,07,11,10,23,32.20
2007,07,11,10,24,32.30
2007,07,11,10,25,32.40
2007,07,11,10,26,32.30
2007,07,11,10,27,32.30
2007,07,11,10,28,32.30
2007,07,11,10,29,32.30
2007,07,11,10,30,32.40
2007,07,11,10,31,32.40
2007,07,11,10,32,32.40
2007,07,11,10,33,32.40
2007,07,11,10,34,32.40
2007,07,11,10,35,32.40
2007,07,11,10,36,32.40
2007,07,11,10,37,32.40
2007,07,11,10,38,32.50
2007,07,11,10,39,32.50
2007,07,11,10,40,32.50
2007,07,11,10,41,32.60
2007,07,11,10,42,32.60
2007,07,11,10,43,32.70
2007,07,11,10,44,32.70
2007,07,11,10,45,32.80
2007,07,11,10,46,32.80
2007,07,11,10,47,32.80
2007,07,11,10,48,32.90
2007,07,11,10,49,32.90
2007,07,11,10,50,33.00
2007,07,11,10,51,33.00
2007,07,11,10,52,33.10
2007,07,11,10,53,33.10
2007,07,11,10,54,33.20
2007,07,11,10,55,33.10
2007,07,11,10,56,33.10
2007,07,11,10,57,33.10
2007,07,11,10,58,33.00
2007,07,11,10,59,32.90
2007,07,11,11,00,32.90
2007,07,11,11,01,32.90
2007,07,11,11,02,33.00
2007,07,11,11,03,33.10
2007,07,11,11,04,33.10
2007,07,11,11,05,33.10
2007,07,11,11,06,33.20
2007,07,11,11,07,33.20
2007,07,11,11,08,33.30
2007,07,11,11,09,33.40
2007,07,11,11,10,33.40
2007,07,11,11,11,33.30
2007,07,11,11,12,33.30
2007,07,11,11,13,33.40
2007,07,11,11,14,33.40
2007,07,11,11,15,33.40
2007,07,11,11,16,33.40
2007,07,11,11,17,33.40
2007,07,11,11,18,33.40
2007,07,11,11,19,33.50
2007,07,11,11,20,33.50
2007,07,11,11,21,33.60
2007,07,11,11,22,33.60
2007,07,11,11,23,33.70
2007,07,11,11,24,33.80
2007,07,11,11,25,33.80
2007,07,11,11,26,33.80
2007,07,11,11,27,33.80
2007,07,11,11,28,33.80
2007,07,11,11,29,33.80
2007,07,11,11,30,33.90
2007,07,11,11,31,33.90
2007,07,11,11,32,33.90
2007,07,11,11,33,34.00
2007,07,11,11,34,34.00
2007,07,11,11,35,34.10
2007,07,11,11,36,34.20
2007,07,11,11,37,34.40
2007,07,11,11,38,34.50
2007,07,11,11,39,34.60
2007,07,11,11,40,34.70
2007,07,11,11,41,34.70
2007,07,11,11,42,34.70
2007,07,11,11,43,34.70
2007,07,11,11,44,34.60
2007,07,11,11,45,34.60
2007,07,11,11,46,34.60
2007,07,11,11,47,34.60
2007,07,11,11,48,34.60
2007,07,11,11,49,34.60
2007,07,11,11,50,34.60
2007,07,11,11,51,34.70
2007,07,11,11,52,34.80
2007,07,11,11,53,34.80
2007,07,11,11,54,34.80
2007,07,11,11,55,34.70
2007,07,11,11,56,34.70
2007,07,11,11,57,34.60
2007,07,11,11,58,34.50
2007,07,11,11,59,34.30
2007,07,11,12,00,34.30
2007,07,11,12,01,34.30
2007,07,11,12,02,34.30
2007,07,11,12,03,34.40
2007,07,11,12,04,34.50
2007,07,11,12,05,34.50
2007,07,11,12,06,34.50
2007,07,11,12,07,34.50
2007,07,11,12,08,34.60
2007,07,11,12,09,34.60
2007,07,11,12,10,34.60
2007,07,11,12,11,34.70
2007,07,11,12,12,34.80
2007,07,11,12,13,34.80
2007,07,11,12,14,34.90
2007,07,11,12,15,34.90
2007,07,11,12,16,34.90
2007,07,11,12,17,34.90
2007,07,11,12,18,34.90
2007,07,11,12,19,34.70
2007,07,11,12,20,34.60
2007,07,11,12,21,34.40
2007,07,11,12,22,34.40
2007,07,11,12,23,34.30
2007,07,11,12,24,34.30
2007,07,11,12,25,34.30
2007,07,11,12,26,34.40
2007,07,11,12,27,34.50
2007,07,11,12,28,34.50
2007,07,11,12,29,34.60
2007,07,11,12,30,34.60
2007,07,11,12,31,34.70
2007,07,11,12,32,34.70
2007,07,11,12,33,34.70
2007,07,11,12,34,34.60
2007,07,11,12,35,34.70
2007,07,11,12,36,34.70
2007,07,11,12,37,34.60
2007,07,11,12,38,34.60
2007,07,11,12,39,34.60
2007,07,11,12,40,34.60
2007,07,11,12,41,34.60
2007,07,11,12,42,34.60
2007,07,11,12,43,34.50
2007,07,11,12,44,34.50
2007,07,11,12,45,34.40
2007,07,11,12,46,34.30
2007,07,11,12,47,34.30
2007,07,11,12,48,34.40
2007,07,11,12,49,34.40
2007,07,11,12,50,34.40
2007,07,11,12,51,34.40
2007,07,11,12,52,34.30
2007,07,11,12,53,34.30
2007,07,11,12,54,34.40
2007,07,11,12,55,34.40
2007,07,11,12,56,34.40
2007,07,11,12,57,34.40
2007,07,11,12,58,34.40
2007,07,11,12,59,34.40
2007,07,11,13,00,34.50
2007,07,11,13,01,34.60
2007,07,11,13,02,34.70
2007,07,11,13,03,34.80
2007,07,11,13,04,34.90
2007,07,11,13,05,35.10
2007,07,11,13,06,35.20
2007,07,11,13,07,35.40
2007,07,11,13,08,35.40
2007,07,11,13,09,35.50
2007,07,11,13,10,35.50
2007,07,11,13,11,35.40
2007,07,11,13,12,35.40
2007,07,11,13,13,35.40
2007,07,11,13,14,35.40
2007,07,11,13,15,35.40
2007,07,11,13,16,35.40
2007,07,11,13,17,35.40
2007,07,11,13,18,35.30
2007,07,11,13,19,35.40
2007,07,11,13,20,35.50
2007,07,11,13,21,35.40
2007,07,11,13,22,35.40
2007,07,11,13,23,35.50
2007,07,11,13,24,35.50
2007,07,11,13,25,35.50
2007,07,11,13,26,35.40
2007,07,11,13,27,35.40
2007,07,11,13,28,35.40
2007,07,11,13,29,35.40
2007,07,11,13,30,35.40
2007,07,11,13,31,35.40
2007,07,11,13,32,35.40
2007,07,11,13,33,35.40
2007,07,11,13,34,35.40
2007,07,11,13,35,35.40
2007,07,11,13,36,35.30
2007,07,11,13,37,35.30
2007,07,11,13,38,35.20
2007,07,11,13,39,35.30
2007,07,11,13,40,35.20
2007,07,11,13,41,35.20
2007,07,11,13,42,35.20
2007,07,11,13,43,35.20
2007,07,11,13,44,35.30
2007,07,11,13,45,35.30
2007,07,11,13,46,35.40
2007,07,11,13,47,35.50
2007,07,11,13,48,35.60
2007,07,11,13,49,35.70
2007,07,11,13,50,35.70
2007,07,11,13,51,35.70
2007,07,11,13,52,35.70
2007,07,11,13,53,35.70
2007,07,11,13,54,35.70
2007,07,11,13,55,35.60
2007,07,11,13,56,35.50
2007,07,11,13,57,35.50
2007,07,11,13,58,35.60
2007,07,11,13,59,35.60
2007,07,11,14,00,35.70
2007,07,11,14,01,35.90
2007,07,11,14,02,36.00
2007,07,11,14,03,36.10
2007,07,11,14,04,36.20
2007,07,11,14,05,36.20
2007,07,11,14,06,36.20
2007,07,11,14,07,36.20
2007,07,11,14,08,36.20
2007,07,11,14,09,36.20
2007,07,11,14,10,36.20
2007,07,11,14,11,36.30
2007,07,11,14,12,36.30
2007,07,11,14,13,36.40
2007,07,11,14,14,36.40
2007,07,11,14,15,36.40
2007,07,11,14,16,36.50
2007,07,11,14,17,36.50
2007,07,11,14,18,36.60
2007,07,11,14,19,36.70
2007,07,11,14,20,36.70
2007,07,11,14,21,36.70
2007,07,11,14,22,36.70
2007,07,11,14,23,36.60
2007,07,11,14,24,36.60
2007,07,11,14,25,36.50
2007,07,11,14,26,36.50
2007,07,11,14,27,36.50
2007,07,11,14,28,36.40
2007,07,11,14,29,36.40
2007,07,11,14,30,36.40
2007,07,11,14,31,36.40
2007,07,11,14,32,36.40
2007,07,11,14,33,36.40
2007,07,11,14,34,36.50
2007,07,11,14,35,36.50
2007,07,11,14,36,36.50
2007,07,11,14,37,36.40
2007,07,11,14,38,36.30
2007,07,11,14,39,36.30
2007,07,11,14,40,36.40
2007,07,11,14,41,36.40
2007,07,11,14,42,36.40
2007,07,11,14,43,36.40
2007,07,11,14,44,36.40
2007,07,11,14,45,36.40
2007,07,11,14,46,36.50
2007,07,11,14,47,36.60
2007,07,11,14,48,36.70
2007,07,11,14,49,36.80
2007,07,11,14,50,36.90
2007,07,11,14,51,36.90
2007,07,11,14,52,36.90
2007,07,11,14,53,36.80
2007,07,11,14,54,36.80
2007,07,11,14,55,36.70
2007,07,11,14,56,36.70
2007,07,11,14,57,36.70
2007,07,11,14,58,36.60
2007,07,11,14,59,36.70
2007,07,11,15,00,36.70
2007,07,11,15,01,36.60
2007,07,11,15,02,36.60
2007,07,11,15,03,36.60
2007,07,11,15,04,36.60
2007,07,11,15,05,36.70
2007,07,11,15,06,36.70
2007,07,11,15,07,36.70
2007,07,11,15,08,36.70
2007,07,11,15,09,36.80
2007,07,11,15,10,36.80
2007,07,11,15,11,36.70
2007,07,11,15,12,36.70
2007,07,11,15,13,36.70
2007,07,11,15,14,36.60
2007,07,11,15,15,36.60
2007,07,11,15,16,36.70
2007,07,11,15,17,36.80
2007,07,11,15,18,36.80
2007,07,11,15,19,36.80
2007,07,11,15,20,36.90
2007,07,11,15,21,36.90
2007,07,11,15,22,36.90
2007,07,11,15,23,36.80
2007,07,11,15,24,36.80
2007,07,11,15,25,36.70
2007,07,11,15,26,36.70
2007,07,11,15,27,36.70
2007,07,11,15,28,36.80
2007,07,11,15,29,36.80
2007,07,11,15,30,36.80
2007,07,11,15,31,36.80
2007,07,11,15,32,36.80
2007,07,11,15,33,36.80
2007,07,11,15,34,36.80
2007,07,11,15,35,36.70
2007,07,11,15,36,36.60
2007,07,11,15,37,36.60
2007,07,11,15,38,36.60
2007,07,11,15,39,36.50
2007,07,11,15,40,36.60
2007,07,11,15,41,36.60
2007,07,11,15,42,36.50
2007,07,11,15,43,36.40
2007,07,11,15,44,36.40
2007,07,11,15,45,36.40
2007,07,11,15,46,36.50
2007,07,11,15,47,36.60
2007,07,11,15,48,36.60
2007,07,11,15,49,36.60
2007,07,11,15,50,36.70
2007,07,11,15,51,36.70
2007,07,11,15,52,36.70
2007,07,11,15,53,36.70
2007,07,11,15,54,36.80
2007,07,11,15,55,36.90
2007,07,11,15,56,36.90
2007,07,11,15,57,37.00
2007,07,11,15,58,36.90
2007,07,11,15,59,36.80
2007,07,11,16,00,36.80
2007,07,11,16,01,36.80
2007,07,11,16,02,36.90
2007,07,11,16,03,37.00
2007,07,11,16,04,37.00
2007,07,11,16,05,37.10
2007,07,11,16,06,37.20
2007,07,11,16,07,37.20
2007,07,11,16,08,37.20
2007,07,11,16,09,37.30
2007,07,11,16,10,37.40
2007,07,11,16,11,37.50
2007,07,11,16,12,37.60
2007,07,11,16,13,37.80
2007,07,11,16,14,37.90
2007,07,11,16,15,37.90
2007,07,11,16,16,38.00
2007,07,11,16,17,38.00
2007,07,11,16,18,38.10
2007,07,11,16,19,38.10
2007,07,11,16,20,38.20
2007,07,11,16,21,38.30
2007,07,11,16,22,38.40
2007,07,11,16,23,38.40
2007,07,11,16,24,38.50
2007,07,11,16,25,38.40
2007,07,11,16,26,38.30
2007,07,11,16,27,38.30
2007,07,11,16,28,38.20
2007,07,11,16,29,38.20
2007,07,11,16,30,38.20
2007,07,11,16,31,38.10
2007,07,11,16,32,38.00
2007,07,11,16,33,37.90
2007,07,11,16,34,37.80
2007,07,11,16,35,37.80
2007,07,11,16,36,37.80
2007,07,11,16,37,37.70
2007,07,11,16,38,37.60
2007,07,11,16,39,37.60
2007,07,11,16,40,37.60
2007,07,11,16,41,37.50
2007,07,11,16,42,37.40
2007,07,11,16,43,37.40
2007,07,11,16,44,37.30
2007,07,11,16,45,37.10
2007,07,11,16,46,37.10
2007,07,11,16,47,37.10
2007,07,11,16,48,37.10
2007,07,11,16,49,37.20
2007,07,11,16,50,37.30
2007,07,11,16,51,37.30
2007,07,11,16,52,37.50
2007,07,11,16,53,37.50
2007,07,11,16,54,37.50
2007,07,11,16,55,37.50
2007,07,11,16,56,37.40
2007,07,11,16,57,37.40
2007,07,11,16,58,37.40
2007,07,11,16,59,37.50
2007,07,11,17,00,37.50
2007,07,11,17,01,37.60
2007,07,11,17,02,37.60
2007,07,11,17,03,37.60
2007,07,11,17,04,37.60
2007,07,11,17,05,37.60
2007,07,11,17,06,37.60
2007,07,11,17,07,37.60
2007,07,11,17,08,37.60
2007,07,11,17,09,37.60
2007,07,11,17,10,37.50
2007,07,11,17,11,37.50
2007,07,11,17,12,37.40
2007,07,11,17,13,37.40
2007,07,11,17,14,37.40
2007,07,11,17,15,37.40
2007,07,11,17,16,37.40
2007,07,11,17,17,37.40
2007,07,11,17,18,37.40
2007,07,11,17,19,37.30